Connecta T4.3

operational
NORAD ID: 60475 Int'l Des: 2024-149 Owner: PLNSST Country: TR
LEOCIRCULARRETROGRADESSO

关于 Connecta T4.3

正在加载描述...

实时位置

正在加载3D地球...

即将过境

高度历史

Altitude vs Time

uPlot chart will show altitude changes over time

两行轨道根数

1 60475U 24149H 26061.49444103 .00006374 00000-0 27510-3 0 9994
2 60475 97.3815 139.4048 0001430 284.0039 76.1038 15.22863121 85560
Epoch: Mar 2, 2026 • Age: 27 hours

当前状态

高度 500.5 km
速度 7.61 km/s
星下点 0.15°N, 116.44°E
发射日期 Aug 16, 2024
运行时间 1.5 years
类型 other

技术详情

分类 Payload
质量 10.00 kg
干质量 10.00 kg
总质量 10.00 kg
长度 0.30 m
直径 0.20 m
跨度 0.30 m
形状 Box
制造商 PLNSST
平台类型 Cubesat 6U
阶段状态 In Orbit
所有者/国家 PLNSST/TR

大型星座

Loading constellations...